Wind_Speed
28 27 27 26 25 25 25 24 23 21 20 18 17 17 16 13 13 17 20 19 19 20 19 19 19 19 19 20 21 21 22 22 21 20 20 21 21 22 21 20 21 20 19 19 19 17 16 16 16 16 15 14 13 13 12 12 10 9 9 8 7 7 7 8 9 13 15 14 15 18 19 19 20 20 22 23 25 27 28 27 27 26 26 27 29
28 27 26 26 25 26 26 25 24 23 21 20 19 19 17 14 15 19 20 20 20 20 20 20 20 20 20 20 20 20 20 20 20 19 19 21 22 21 20 19 19 19 17 17 17 16 15 15 15 15 15 15 14 13 13 11 10 9 9 8 8 7 7 8 10 12 15 16 16 17 19 19 20 21 23 24 24 26 27 28 27 26 26 27 29
29 27 27 27 27 27 27 26 26 24 23 22 21 20 17 15 18 21 21 21 21 20 20 21 21 20 20 20 20 20 19 19 18 18 19 19 20 20 19 18 18 17 16 15 15 15 14 14 14 13 13 14 14 13 13 11 10 9 9 9 9 9 8 8 9 11 14 17 16 16 19 20 20 21 23 23 23 25 26 27 27 27 27 28 29
30 29 28 29 28 28 28 27 27 25 24 23 22 20 18 18 20 22 21 21 22 22 21 21 21 21 21 20 20 19 19 18 17 17 18 18 18 18 17 17 16 16 15 15 14 14 14 14 13 12 12 13 13 12 12 11 10 10 10 10 10 11 11 10 10 11 13 15 16 17 18 19 21 22 23 23 24 25 24 26 28 29 29 29 29
31 31 30 30 29 29 29 28 27 26 25 24 22 20 18 20 23 22 22 22 22 22 22 22 22 22 21 20 20 19 19 18 18 19 19 19 18 17 16 16 15 15 15 15 14 13 13 13 12 12 12 12 12 12 12 11 10 10 11 12 12 13 13 11 11 12 13 15 16 16 17 18 20 21 23 26 27 25 23 25 28 30 31 29 28
32 32 31 31 31 30 29 29 28 27 25 24 22 20 20 22 24 23 23 23 23 23 23 23 23 22 21 20 20 20 19 18 19 20 20 19 18 16 15 15 15 15 14 14 14 13 13 12 12 11 11 11 11 11 12 12 11 11 13 13 13 14 14 13 13 13 13 14 15 16 17 18 19 20 23 26 27 27 28 30 29 29 30 30 30
33 33 32 32 31 31 30 29 29 27 26 25 23 21 22 24 24 24 23 23 24 24 24 24 23 22 21 20 20 20 20 20 20 20 19 18 17 16 15 14 14 14 14 13 13 12 12 12 11 11 11 10 10 11 12 12 11 12 13 14 14 15 15 14 14 14 14 15 15 16 17 18 18 21 24 25 24 25 29 32 32 31 30 30 32
34 33 32 32 31 31 30 29 29 27 26 26 23 22 24 25 24 24 24 24 24 24 24 23 23 22 21 21 20 20 21 22 21 20 19 17 15 15 14 14 13 13 13 12 12 11 11 11 11 10 10 10 11 11 12 13 12 11 13 14 14 14 14 14 15 14 14 15 15 16 17 18 19 21 24 25 25 27 28 28 29 30 30 30 31
34 33 32 32 31 31 30 30 29 28 27 27 26 25 26 26 25 25 24 24 24 24 24 23 23 23 23 21 20 20 22 24 22 20 18 16 15 14 13 12 12 12 11 11 10 10 9 10 11 10 10 11 11 10 12 13 13 13 14 15 15 15 14 14 14 14 14 15 15 17 18 18 20 23 24 25 26 28 29 28 27 27 28 30 31
34 34 32 32 31 31 30 30 29 29 28 28 28 28 28 27 26 25 25 25 24 24 24 23 24 24 24 22 21 21 23 23 21 19 17 16 14 13 12 11 11 10 10 10 9 8 8 9 10 9 9 10 10 10 11 13 14 15 15 15 15 15 14 14 14 14 15 15 15 17 18 18 21 23 23 24 26 27 29 29 28 29 28 27 27
34 34 33 32 32 31 31 31 30 30 30 29 30 30 29 28 27 26 25 25 25 24 25 24 25 25 24 23 22 22 23 22 19 17 15 14 13 12 12 11 10 9 9 8 8 7 7 7 7 9 10 10 10 10 12 13 15 16 15 15 15 15 14 13 13 14 14 15 15 16 17 19 21 22 22 25 26 26 27 27 28 30 28 25 25
34 33 33 32 32 32 32 32 31 31 31 31 31 31 30 29 28 27 26 26 25 25 25 25 25 25 24 23 22 23 22 20 18 17 15 13 12 12 11 10 10 9 7 7 7 6 5 5 6 8 10 10 10 11 13 15 17 17 15 15 15 15 14 13 13 13 14 14 15 16 17 18 20 22 24 25 26 26 26 27 28 29 28 26 27
34 33 33 33 33 33 33 33 33 33 32 33 33 32 31 30 28 27 26 26 26 26 26 26 26 25 24 23 22 23 22 20 18 17 15 14 13 12 11 10 9 8 7 6 6 5 4 3 5 7 9 10 11 12 14 16 18 17 17 17 17 17 16 16 16 16 15 14 14 16 18 18 19 22 26 27 26 26 26 27 29 29 28 28 30
34 33 33 33 33 34 34 34 34 34 34 34 34 33 32 30 28 27 26 26 26 27 27 26 26 25 24 23 22 22 21 19 18 17 15 14 13 13 11 10 10 9 7 6 4 4 3 3 4 5 7 9 11 13 14 17 19 19 19 19 18 18 17 18 19 19 19 17 15 17 19 19 20 24 29 29 25 24 26 29 29 28 28 29 30
33 34 34 34 34 36 36 35 35 35 35 35 34 33 32 30 28 26 25 26 27 27 27 27 26 26 25 23 22 22 20 19 18 17 16 14 13 12 10 10 10 10 8 7 4 3 3 3 3 5 7 8 11 13 15 17 18 18 18 19 19 19 19 19 19 20 21 20 19 19 20 21 22 24 27 29 27 27 29 27 26 26 27 27 28
32 34 35 34 35 36 36 36 36 36 36 35 34 33 32 29 27 25 24 25 26 27 27 27 26 26 25 24 22 22 21 19 18 17 16 14 14 12 10 10 11 11 10 8 5 3 2 2 3 4 6 8 10 12 14 15 16 17 17 19 20 19 18 19 20 20 21 21 20 20 20 20 21 22 24 26 29 31 29 24 23 24 25 25 27
34 35 35 36 36 36 37 37 37 36 36 36 35 33 31 29 26 24 23 24 26 27 27 27 26 26 25 24 23 22 21 20 19 17 16 15 14 12 11 11 12 12 11 9 6 3 2 1 2 3 5 7 9 11 13 14 15 15 16 19 20 18 18 22 22 21 21 21 20 20 21 21 22 23 24 25 30 32 26 21 24 26 24 22 24
34 35 36 37 38 37 37 37 37 37 37 36 35 33 30 28 26 23 22 23 25 26 26 26 26 25 24 24 23 22 21 20 19 17 16 15 14 13 11 11 12 12 12 10 8 5 3 2 1 2 4 6 8 10 11 13 14 14 15 17 16 15 18 23 24 23 22 22 22 23 23 24 25 27 27 27 31 33 27 23 24 25 23 22 24
35 37 38 38 39 38 38 38 37 37 37 36 35 33 30 28 26 23 22 23 24 25 25 26 25 24 23 22 21 21 20 19 18 17 16 15 14 13 12 11 12 13 12 10 9 6 4 3 1 1 4 6 7 9 10 11 12 12 13 13 12 13 16 20 22 23 23 23 25 26 27 29 30 30 31 31 32 34 33 29 25 21 22 24 25
36 39 38 37 36 36 38 39 37 37 37 35 34 32 30 28 26 23 23 23 24 25 25 25 25 24 22 21 20 20 20 18 18 16 15 14 14 13 13 12 13 13 12 10 9 7 6 4 3 2 3 5 6 8 9 9 10 11 11 10 10 12 16 19 19 21 23 24 25 26 26 28 29 29 29 31 32 34 36 35 29 22 21 23 25
35 37 36 35 35 35 37 38 37 36 36 35 34 32 30 28 26 24 24 24 24 25 25 24 24 23 22 21 21 20 19 18 18 16 15 14 14 15 15 13 13 13 12 9 8 7 6 5 3 3 3 5 5 7 8 8 9 10 9 9 10 12 15 17 19 20 21 21 20 20 20 22 25 27 28 29 31 33 35 36 33 28 24 22 23
36 37 36 35 35 35 37 38 38 37 35 34 35 33 30 28 26 24 24 24 25 25 25 24 24 23 23 22 21 20 19 19 18 18 17 16 15 15 16 15 13 12 11 10 8 7 7 6 5 4 4 4 5 6 7 7 8 9 9 10 11 12 14 16 18 18 17 16 16 17 18 20 22 24 27 29 31 34 35 35 35 34 29 26 25
38 37 37 37 37 37 38 39 38 37 35 35 35 34 31 29 27 25 25 25 25 25 25 25 25 24 24 22 21 21 20 19 19 18 17 15 14 14 15 14 13 12 11 9 9 8 7 7 6 4 4 4 5 5 6 7 8 9 10 11 12 13 15 16 16 16 16 15 15 16 18 19 21 22 25 29 32 34 36 35 36 36 33 32 31
37 35 35 36 37 37 37 37 37 35 35 36 35 34 33 31 28 27 26 26 26 26 25 25 24 23 22 21 21 21 21 19 18 17 16 15 14 14 13 12 12 12 11 10 10 9 8 7 6 5 4 4 5 6 6 7 9 10 11 12 14 15 15 15 14 15 15 14 15 16 18 19 21 22 26 31 32 33 35 36 37 38 36 36 35
36 34 33 34 36 36 35 35 36 35 36 37 36 35 34 32 30 29 27 27 27 26 25 25 23 21 21 21 21 21 21 20 18 17 16 15 14 13 13 12 12 12 12 11 11 11 9 7 6 5 5 5 6 7 7 8 9 10 11 13 14 14 14 14 14 14 15 14 15 16 17 19 22 25 30 33 30 27 30 35 36 35 36 36 32
36 34 33 34 35 34 33 34 35 36 37 37 36 36 35 33 32 30 29 29 27 25 26 26 23 21 20 20 20 20 20 20 19 18 17 16 15 13 12 12 12 13 13 13 12 11 9 8 6 6 6 6 7 8 8 9 10 11 12 13 14 13 13 14 14 14 14 15 15 16 17 20 24 28 30 31 25 22 27 33 32 30 31 31 27
36 34 34 35 35 33 33 33 34 35 37 37 36 36 35 35 34 31 31 30 25 23 26 26 23 21 21 21 20 20 19 19 20 19 18 17 16 14 13 12 13 14 14 13 12 10 9 8 7 7 7 8 9 9 9 10 10 11 12 13 13 14 14 14 15 16 15 16 17 18 19 20 23 24 26 25 22 23 27 29 27 28 29 26 23
34 31 32 34 35 34 34 34 33 33 34 35 35 35 35 36 35 34 33 31 27 26 29 29 26 25 25 24 23 20 18 19 21 21 20 18 17 15 14 13 14 15 15 13 12 11 10 9 8 8 8 9 9 9 9 9 10 11 12 13 13 14 15 15 15 15 14 15 17 18 18 19 19 20 22 23 22 23 26 25 24 26 27 25 21
30 26 26 30 33 34 34 33 32 33 34 32 32 35 37 37 36 35 34 32 30 30 32 31 30 28 25 24 24 22 19 21 22 20 17 16 14 14 13 13 14 15 14 13 12 10 9 8 8 8 8 8 9 8 8 8 8 10 12 13 14 14 14 14 13 13 14 16 17 18 18 19 19 18 19 21 23 24 25 24 23 23 24 23 23
25 23 23 26 30 33 33 31 29 31 33 29 26 30 33 34 34 34 33 31 30 29 29 30 30 28 25 25 27 25 22 21 20 17 14 13 12 11 10 10 11 12 12 12 12 10 9 8 8 8 8 9 9 9 9 9 9 10 12 13 14 15 15 15 13 13 16 19 19 19 19 19 18 17 17 20 23 24 24 24 22 20 20 22 22
26 23 23 26 31 34 32 29 27 28 29 27 27 28 28 27 29 31 30 30 31 29 27 27 27 27 27 27 27 24 21 19 17 15 14 13 12 11 11 10 10 11 12 12 11 11 11 9 9 9 9 10 10 10 10 11 11 13 13 14 15 16 17 17 15 16 19 21 19 19 19 18 17 17 18 20 22 22 22 22 22 20 20 20 21
28 24 23 28 33 31 27 27 28 27 25 25 27 29 27 23 23 26 27 28 29 28 27 26 25 26 26 26 25 23 21 19 17 15 13 12 12 12 12 12 12 12 12 13 12 11 11 11 11 11 11 12 12 12 12 12 13 14 14 14 15 16 16 16 17 18 20 20 19 20 20 19 20 21 20 20 20 20 20 20 21 20 20 20 20
29 25 24 28 32 28 26 29 30 27 25 25 28 30 29 24 22 23 23 23 24 25 25 24 23 24 25 26 26 24 22 20 18 15 14 13 12 12 13 15 15 14 14 14 14 13 12 12 13 13 12 13 13 13 13 13 14 14 15 16 16 17 17 17 18 19 19 19 20 21 21 21 21 21 20 18 17 16 17 18 18 19 19 19 20
32 30 30 33 34 30 29 32 32 28 28 31 32 32 31 29 27 26 24 21 20 22 24 24 24 24 24 25 26 25 24 22 20 17 16 14 14 14 14 16 17 17 17 16 16 16 15 14 15 15 14 13 14 14 15 15 15 16 16 16 17 18 19 19 19 20 20 20 21 21 21 21 21 20 19 19 17 15 16 16 16 17 18 18 19
30 31 33 35 36 33 31 32 33 31 30 31 31 30 31 32 31 29 28 26 26 26 26 26 26 25 24 24 24 25 25 24 21 19 17 15 14 15 15 16 18 19 20 20 20 19 18 18 17 16 14 14 14 15 15 16 16 16 17 17 17 18 19 20 20 20 20 21 21 21 22 23 22 21 19 19 18 16 14 15 15 16 16 17 18
27 29 31 32 34 35 33 33 34 32 28 28 28 28 30 32 31 30 29 29 28 26 23 23 24 24 23 23 24 25 25 24 22 20 19 18 17 17 17 18 19 20 22 22 22 21 21 20 19 18 16 16 17 17 16 17 17 18 18 18 18 19 19 20 20 20 21 21 22 22 23 23 24 23 20 19 18 16 14 14 16 17 17 18 18
26 29 31 31 32 34 34 34 33 30 27 27 26 25 25 27 27 26 25 24 24 22 19 19 21 23 23 24 25 26 25 24 23 22 21 21 20 19 19 20 20 21 22 22 22 22 22 21 20 19 19 18 19 18 18 18 19 19 19 18 18 18 19 20 20 20 20 21 22 23 23 24 24 24 22 20 20 18 16 15 16 16 18 19 18
27 31 33 33 33 34 34 33 31 28 27 27 24 21 21 22 23 22 21 21 23 22 18 19 22 24 25 26 26 25 24 23 22 22 23 22 22 21 21 21 21 22 22 22 22 22 22 21 20 19 19 19 20 20 20 20 20 20 19 18 17 17 18 19 19 20 20 21 21 22 23 24 24 23 22 21 21 21 20 19 17 15 15 16 15
25 29 31 31 31 32 32 31 30 29 28 28 26 26 25 25 25 25 24 24 26 26 23 23 26 27 27 26 25 23 22 22 22 22 23 23 23 22 22 22 22 22 22 22 22 22 22 21 20 20 20 20 21 21 21 21 21 21 20 18 17 17 18 19 19 20 20 21 22 23 23 24 24 23 22 22 22 21 22 21 20 16 14 13 14
22 26 28 28 28 28 29 29 29 30 30 29 29 30 30 28 28 29 28 27 27 27 26 25 27 28 27 25 24 23 22 22 22 22 22 22 22 23 23 23 23 22 22 21 22 22 22 21 20 21 21 22 22 23 23 22 22 21 20 19 18 18 18 19 19 20 20 21 22 23 24 24 24 23 23 22 21 21 22 22 21 19 17 16 16
24 24 25 26 25 25 25 26 28 30 31 31 30 30 30 30 29 29 29 28 27 27 27 27 28 29 27 24 22 22 21 21 22 21 21 21 22 22 23 23 23 23 22 21 21 21 21 21 21 22 23 23 23 23 23 23 21 20 18 17 17 18 19 19 19 20 21 21 22 23 23 24 24 24 23 22 21 21 22 21 20 19 18 16 14
27 26 27 27 26 26 27 28 28 29 29 29 29 30 31 31 30 29 28 28 28 28 28 29 29 28 25 23 22 21 21 21 22 22 21 21 22 22 23 23 22 22 21 21 21 21 22 22 23 24 24 24 24 23 23 22 20 19 17 17 17 17 18 18 19 20 21 22 23 23 24 24 24 24 24 24 23 22 22 21 20 19 18 16 14
28 28 29 29 30 30 31 30 29 28 27 28 29 31 31 31 30 30 29 29 29 29 29 30 30 27 25 23 22 22 22 23 24 23 22 22 22 22 21 20 19 18 19 19 20 21 23 24 24 24 24 24 23 23 22 20 19 19 18 18 17 18 18 19 20 21 22 23 24 24 25 25 25 24 24 25 24 23 22 21 21 20 18 16 15
28 28 29 30 30 30 29 29 29 30 30 30 29 30 30 28 28 28 28 29 29 29 29 30 29 27 25 24 23 22 23 24 24 24 23 23 22 20 19 17 17 17 19 20 21 22 23 24 25 25 24 24 23 22 20 19 19 20 20 19 19 19 20 20 21 21 22 24 25 25 25 25 25 24 24 24 24 23 22 21 21 20 18 16 14
27 27 28 29 29 28 27 28 29 30 30 27 24 25 27 26 25 27 29 29 28 28 29 29 28 26 25 25 24 23 23 23 23 22 22 21 19 18 17 16 17 19 20 21 21 22 23 24 24 24 23 22 21 21 20 19 19 20 20 20 20 20 20 20 21 21 22 23 24 24 24 24 24 24 23 22 22 22 21 21 20 20 20 19 17
27 26 26 27 28 27 27 27 27 27 27 25 22 22 25 26 25 27 29 28 27 27 28 28 27 27 26 25 24 23 22 22 21 20 19 18 17 16 16 16 18 19 21 21 22 22 23 23 23 23 22 21 21 21 20 20 20 20 20 21 21 21 20 20 20 21 21 22 22 23 23 23 23 23 22 22 22 21 22 22 21 20 20 20 19
25 25 25 26 26 25 25 26 27 27 25 24 22 22 24 26 26 27 27 27 26 26 27 27 27 27 26 24 23 21 21 20 20 20 18 17 16 16 16 16 18 19 20 21 21 22 22 23 22 23 22 21 21 21 21 20 21 21 21 21 21 20 19 19 20 21 21 21 22 23 23 23 23 22 21 22 22 22 22 22 22 21 21 20 20
23 23 23 23 22 20 20 23 25 25 23 23 24 25 26 27 27 26 26 26 25 25 25 26 27 27 25 22 21 20 20 21 20 19 18 17 17 16 16 17 18 19 20 20 21 21 22 22 22 22 23 23 22 22 21 20 20 20 20 20 20 20 20 20 21 22 23 23 23 23 23 23 23 22 21 21 21 21 21 21 21 21 21 20 20
22 21 21 21 20 19 19 22 25 26 25 26 27 26 25 26 26 25 25 24 24 24 24 25 25 25 23 21 21 21 22 22 21 20 19 18 17 16 17 17 18 18 19 20 20 20 21 22 22 23 23 23 22 22 21 20 20 19 19 19 20 20 21 22 22 22 22 22 22 22 22 23 23 22 21 21 20 20 21 21 21 22 22 22 21
20 20 21 21 20 20 21 24 26 27 27 27 27 27 26 25 25 24 23 23 22 23 23 24 24 25 24 23 23 24 23 22 20 20 19 19 19 19 19 19 19 19 19 19 20 21 21 22 23 23 23 23 22 22 22 22 21 20 20 19 20 20 20 20 20 20 20 19 19 20 20 21 21 21 20 20 19 19 20 22 22 22 22 22 21
19 19 20 20 19 19 21 24 25 26 26 27 28 28 27 26 25 25 25 24 24 23 24 24 25 25 24 23 24 23 21 19 18 18 19 19 19 20 20 20 21 21 21 21 22 22 22 22 22 22 22 22 22 22 22 21 21 21 20 20 20 19 18 18 18 17 17 18 18 18 19 19 20 20 20 20 20 21 22 23 23 22 22 21 21
Wind_Direction
178 180 179 179 179 178 175 173 172 170 169 169 167 164 160 160 169 171 167 167 167 164 161 157 154 150 143 143 143 141 136 132 126 122 118 115 113 110 106 102 98 97 98 99 99 96 91 87 83 79 76 71 66 61 56 51 46 42 32 23 21 14 1 351 333 324 331 338 337 335 338 339 340 341 340 337 338 339 337 333 332 331 329 326 326
177 178 176 178 179 177 174 173 172 172 172 171 169 166 163 166 174 171 167 168 169 168 165 160 158 154 148 147 147 143 139 133 128 124 120 118 115 112 108 104 101 99 100 102 101 98 94 89 84 79 74 68 64 58 52 46 40 34 27 20 16 13 2 350 340 328 327 334 338 336 338 340 339 341 341 336 335 335 333 331 331 330 328 325 321
177 177 177 179 179 176 174 173 174 174 173 173 171 167 167 171 175 172 169 169 171 171 169 164 162 158 153 151 149 147 143 137 132 128 124 121 117 114 110 106 102 100 102 105 103 99 94 89 83 76 70 65 60 54 48 42 36 28 20 16 11 7 3 350 339 332 326 328 335 338 339 340 339 339 338 335 334 333 331 331 331 329 327 324 321
177 176 177 178 177 175 175 174 175 175 174 174 172 169 170 173 175 174 172 171 172 173 171 168 166 162 158 155 152 151 147 140 136 132 129 127 121 116 112 107 103 101 102 105 104 100 94 87 80 72 66 61 55 49 43 35 29 24 14 9 7 2 358 351 341 335 327 325 332 337 338 338 337 337 339 337 336 334 331 331 331 329 328 327 326
176 175 175 175 175 175 176 175 177 177 177 176 173 172 175 176 176 175 174 173 173 173 172 170 169 166 162 159 156 155 151 144 139 135 132 129 125 120 116 109 105 102 101 103 102 98 92 85 76 67 60 56 50 43 37 31 25 21 14 8 5 358 353 351 345 338 331 325 328 334 338 338 334 337 342 341 337 335 335 335 333 330 328 329 331
175 174 174 173 174 175 176 176 178 178 178 176 174 177 179 177 177 177 177 176 175 175 174 172 171 170 167 163 160 158 155 149 142 137 133 131 128 124 120 114 109 105 102 103 101 96 89 81 72 62 55 50 46 38 31 28 23 18 14 8 3 357 352 350 346 340 333 328 329 334 338 338 336 337 342 342 338 337 339 338 336 334 332 332 335
174 173 174 174 174 176 176 178 179 179 179 177 176 179 180 178 178 179 179 179 177 176 176 174 174 174 171 168 164 162 159 154 146 140 137 135 132 129 125 120 114 109 107 105 100 94 86 77 67 57 51 45 40 34 28 24 19 15 11 5 360 355 350 347 344 340 334 331 334 337 337 338 339 339 341 341 340 341 341 337 335 338 339 336 335
173 173 174 175 175 176 177 179 179 180 180 178 178 180 180 178 179 181 181 181 180 180 178 178 177 177 175 171 168 166 163 159 152 145 142 141 139 136 131 126 121 115 111 107 101 93 84 73 64 55 50 46 40 33 27 22 18 13 8 3 358 353 350 346 343 340 337 335 337 339 338 339 343 342 341 344 345 344 342 337 330 332 336 335 332
174 174 175 176 177 177 178 179 180 181 180 179 179 180 179 179 181 182 182 183 183 182 181 181 179 178 177 174 172 170 167 163 158 152 149 149 147 145 140 135 130 123 116 110 102 94 84 72 63 58 54 48 41 35 27 21 18 13 6 2 358 353 350 347 343 340 338 338 340 341 339 341 345 345 343 345 344 338 336 334 329 328 330 331 332
173 174 175 176 178 178 178 179 180 180 180 180 180 179 179 180 181 182 183 184 185 184 183 183 182 180 179 177 176 174 171 167 162 157 156 156 155 153 149 145 138 130 122 114 106 97 88 75 63 57 53 46 40 34 26 20 17 13 8 5 2 357 352 347 343 340 338 339 340 341 339 341 344 343 341 341 339 334 333 333 331 331 330 328 332
174 174 175 177 179 179 178 179 179 180 181 181 180 180 180 182 183 184 185 186 186 186 184 184 183 183 181 180 180 178 175 171 167 166 165 166 167 163 159 153 146 137 127 117 111 102 93 80 61 51 46 39 34 27 21 18 16 14 13 13 10 6 1 351 341 338 337 337 337 338 339 338 339 340 340 340 338 334 333 332 333 333 332 330 332
173 174 176 178 179 179 179 179 179 180 181 181 181 181 182 183 184 185 186 188 187 186 186 186 186 185 184 184 183 182 180 177 175 175 176 178 182 179 172 165 156 148 137 124 113 104 98 85 62 48 39 33 27 20 16 16 15 16 19 20 17 14 11 4 353 344 338 335 333 335 338 335 334 338 341 339 335 332 332 334 336 334 331 332 334
174 174 177 179 180 180 180 179 179 180 181 182 182 182 183 184 186 187 188 190 189 188 188 188 188 187 187 187 186 184 183 183 182 182 183 186 192 192 188 181 172 164 155 139 119 103 98 82 61 47 35 28 22 17 16 14 15 20 24 23 20 15 13 13 9 1 352 342 330 330 336 334 330 335 341 339 333 331 332 334 335 334 330 332 333
175 176 179 181 182 181 180 179 180 180 181 182 182 182 184 185 187 189 191 191 190 190 190 190 190 190 190 189 188 186 186 185 184 183 184 188 193 195 197 196 189 180 172 161 140 112 96 80 66 46 30 23 17 16 16 13 13 19 23 22 21 19 16 14 12 9 6 360 342 333 337 337 332 336 345 345 336 331 331 329 329 331 327 326 330
175 176 178 181 183 182 181 180 180 181 182 182 182 183 185 187 188 190 192 192 191 191 191 191 192 192 192 192 190 189 188 186 185 184 185 188 191 192 197 201 196 191 187 181 167 130 100 85 67 43 27 17 11 13 14 12 14 17 19 19 22 22 20 16 13 11 11 9 0 350 347 345 342 343 349 351 345 342 338 328 323 325 324 325 332
175 177 178 180 182 182 182 181 181 182 182 182 182 184 186 188 189 190 192 192 192 192 192 193 194 194 194 193 192 192 190 189 187 187 188 191 192 194 201 202 198 195 196 194 187 164 130 101 69 37 23 13 7 8 11 12 15 16 16 18 19 18 14 14 17 17 14 12 9 3 357 353 350 348 351 355 354 351 344 334 331 332 329 332 339
177 179 179 181 182 183 183 183 182 182 183 182 183 185 187 189 189 190 191 190 191 192 193 193 195 196 194 194 194 194 193 190 190 190 192 195 197 201 205 202 198 198 200 202 196 187 183 151 79 32 15 8 2 3 7 12 16 16 15 15 15 11 6 9 14 16 15 14 12 9 7 3 360 359 359 1 2 359 349 338 340 340 335 338 344
177 179 182 184 185 186 186 186 184 183 184 185 185 186 188 190 191 191 192 191 191 192 193 194 195 196 196 195 195 196 195 193 192 192 195 200 202 203 202 199 200 202 203 205 203 197 207 207 118 28 6 1 357 357 3 12 16 16 13 11 9 4 4 7 9 10 11 11 10 11 12 10 8 8 7 7 8 6 358 344 340 339 337 338 341
179 182 185 187 188 188 188 188 187 186 186 186 187 188 188 191 193 194 194 194 192 191 193 194 194 195 197 196 196 197 197 195 194 195 197 200 202 203 198 198 204 205 202 201 202 201 211 220 214 352 351 352 349 350 358 8 14 14 11 8 1 355 359 5 7 6 7 8 9 10 11 12 11 9 8 8 8 8 4 356 345 338 336 337 338
183 184 185 185 186 188 189 190 189 188 188 188 189 189 189 191 194 194 194 194 193 191 191 193 192 193 194 195 195 197 197 196 196 197 198 201 206 208 205 201 204 206 201 196 197 201 206 213 228 284 328 339 338 343 351 359 7 10 7 2 352 346 351 358 2 4 4 5 7 6 3 5 7 5 3 4 4 5 6 3 356 345 337 336 339
183 183 182 181 183 186 189 190 190 190 190 190 190 190 191 193 195 194 193 193 192 190 189 190 191 190 191 193 193 195 197 198 200 203 206 211 215 216 213 208 204 203 201 196 197 200 198 196 215 258 299 319 324 335 344 346 354 0 358 351 342 339 344 350 354 357 357 356 356 356 353 356 0 1 1 1 0 2 5 5 1 355 347 341 338
182 181 180 181 183 184 187 189 190 191 192 192 191 190 190 193 195 194 193 192 191 190 188 188 190 190 191 192 194 196 198 201 205 210 212 213 214 212 211 209 205 202 200 199 199 198 195 194 207 240 275 300 311 325 336 338 341 346 344 340 336 333 336 341 344 345 345 343 345 349 353 355 356 358 0 360 359 2 3 3 2 1 358 354 347
182 181 181 182 184 185 188 189 191 192 193 192 191 190 190 191 193 194 192 189 187 187 187 188 190 191 191 192 195 199 203 204 207 209 208 205 203 202 203 203 202 199 198 198 195 190 192 198 209 234 265 287 302 314 327 334 336 337 335 330 326 326 330 334 337 336 335 337 342 347 352 355 354 354 356 358 0 3 3 1 2 3 1 1 360
181 180 181 182 184 186 188 189 191 192 192 191 191 190 189 190 191 192 191 188 184 184 185 187 188 189 190 191 195 201 205 205 203 202 199 197 196 197 196 195 194 194 194 192 189 187 193 203 214 238 264 280 292 303 318 329 333 333 332 326 321 322 326 328 329 328 328 333 340 344 347 351 350 350 353 357 2 4 1 1 3 3 2 2 2
178 178 179 182 184 184 184 187 189 191 192 192 191 190 189 188 188 189 188 185 183 182 183 186 187 187 188 190 194 199 202 202 199 197 197 196 195 194 194 193 192 192 191 191 192 193 198 208 221 243 266 281 290 298 307 317 325 329 327 322 317 316 319 322 323 324 326 330 335 338 341 344 347 351 355 358 0 359 357 360 1 360 359 359 357
177 177 179 182 183 182 182 184 187 190 192 193 193 193 191 188 187 186 186 186 185 182 183 185 186 186 186 187 191 196 198 200 200 198 196 195 195 195 194 193 194 193 192 193 195 198 205 214 229 251 270 281 288 293 298 304 313 319 318 315 312 311 314 318 319 319 321 324 328 330 333 339 347 352 355 356 353 351 355 358 356 352 352 351 348
176 177 179 181 182 182 182 184 186 189 191 192 192 193 193 191 189 187 186 186 184 182 184 186 185 186 187 186 188 193 198 201 203 201 198 197 198 197 196 196 196 194 193 195 196 201 211 221 235 256 269 278 285 290 294 299 305 309 307 305 306 309 314 317 317 317 319 321 325 328 331 336 343 347 350 350 348 349 354 356 351 348 348 345 340
177 176 178 180 182 184 184 184 184 185 188 190 191 192 192 192 191 191 191 191 189 188 189 189 188 189 188 186 187 190 197 205 207 204 201 198 198 199 199 200 201 197 194 195 199 207 218 228 245 263 270 275 280 285 289 293 298 302 300 299 303 310 316 320 321 320 318 320 324 327 330 334 337 341 344 346 346 348 351 352 350 348 347 345 343
175 173 175 179 181 183 184 183 183 184 186 189 192 195 196 196 196 197 199 201 201 199 197 196 194 191 189 188 188 188 195 205 207 204 200 198 199 202 203 204 205 202 197 198 205 215 226 236 250 262 265 268 273 276 281 288 294 298 300 302 305 310 314 318 319 317 317 321 324 327 329 332 334 337 340 343 345 348 349 350 348 346 346 347 347
171 169 171 176 180 182 182 182 183 186 187 185 188 195 199 202 203 204 206 208 208 206 206 205 202 197 195 196 195 192 196 203 205 203 204 205 206 210 211 211 212 208 204 205 212 223 233 242 251 257 260 266 270 272 278 286 292 297 301 305 308 312 315 317 316 316 321 325 326 326 328 330 331 333 336 339 342 346 348 349 347 344 347 348 347
171 171 173 178 182 183 183 182 183 185 186 186 187 190 193 199 204 206 209 211 211 212 214 215 212 209 207 204 201 200 202 207 210 211 214 216 218 220 221 221 218 215 213 215 220 231 239 244 251 256 261 267 270 272 278 282 286 293 298 302 308 314 318 319 317 318 323 325 324 324 326 327 327 328 331 335 340 343 345 347 349 347 347 349 346
173 173 176 182 185 183 180 181 183 184 185 186 188 189 186 187 196 205 211 214 215 216 218 219 220 220 216 211 208 207 209 213 217 218 219 223 227 230 231 231 229 227 227 227 231 238 243 247 254 259 263 267 269 271 276 280 284 290 295 299 305 311 315 317 318 319 320 321 322 322 324 326 328 329 331 333 337 340 341 344 348 347 345 346 346
177 174 176 182 183 181 181 184 185 185 184 185 187 188 186 182 185 195 204 210 214 218 220 222 224 224 221 217 215 215 217 220 224 225 227 231 235 238 238 236 234 236 238 239 240 244 246 250 257 261 263 267 269 269 272 277 282 287 292 296 302 308 312 316 319 320 319 319 321 323 324 326 328 328 329 330 330 333 337 340 344 346 345 344 344
183 182 184 185 183 182 184 187 186 186 188 190 191 190 190 190 189 189 190 194 203 211 215 220 224 226 224 223 222 222 226 231 234 237 239 242 245 248 245 239 234 235 239 242 245 248 250 254 259 263 265 267 269 271 272 274 278 284 289 294 299 305 311 315 318 319 319 318 319 320 322 323 324 323 324 327 328 328 332 336 340 343 344 343 340
186 188 190 188 185 184 186 188 189 189 190 192 191 191 194 197 195 192 190 192 197 203 209 215 221 223 223 224 224 225 229 234 238 241 244 246 248 248 244 237 232 232 236 241 245 250 254 258 262 265 266 268 271 274 275 275 277 281 285 291 298 301 305 309 312 314 316 315 315 317 318 319 321 321 319 321 325 325 325 330 335 338 339 340 338
184 187 187 186 187 189 188 189 190 189 189 189 190 192 195 196 195 195 197 198 200 203 206 212 218 219 219 221 223 225 229 235 241 245 249 251 249 244 239 233 231 233 237 243 248 253 257 261 264 266 268 270 274 277 279 278 279 281 284 289 296 299 300 302 305 308 311 312 312 314 316 316 318 319 317 315 318 319 317 321 328 333 337 339 338
183 185 186 187 190 191 190 190 191 191 191 191 189 189 191 193 193 195 196 198 202 204 203 206 212 214 216 219 223 226 232 237 241 245 248 250 248 244 239 235 235 237 241 246 251 255 259 263 266 268 270 273 276 279 280 280 280 282 285 290 295 297 296 298 301 303 306 308 308 310 313 315 315 317 316 313 313 314 314 317 321 325 333 339 340
187 190 190 190 191 190 190 191 192 192 192 191 188 186 187 188 191 193 194 198 204 206 204 206 210 212 215 219 223 228 232 235 236 238 240 240 239 235 232 232 235 239 243 248 252 257 260 263 265 268 270 273 276 278 279 280 281 283 286 290 294 295 294 295 299 301 304 307 308 309 312 313 314 315 314 311 310 311 312 313 316 319 326 333 336
190 194 194 191 189 189 190 191 191 192 193 192 192 193 193 192 194 197 199 202 207 209 210 212 214 215 218 221 223 224 224 225 228 230 231 230 229 227 227 230 235 241 247 251 254 258 261 262 265 268 271 273 275 277 279 282 284 286 287 289 291 292 292 293 296 300 302 305 308 309 310 312 314 314 313 312 312 312 312 311 312 314 315 319 325
190 193 192 190 188 188 189 189 189 190 193 194 196 198 198 198 199 201 203 206 209 211 211 212 215 218 221 223 223 221 219 220 222 223 223 225 226 227 229 233 238 245 251 255 257 259 262 263 266 270 273 275 278 281 283 285 287 286 286 286 286 287 288 289 291 294 297 302 306 308 310 313 316 317 316 314 314 314 313 312 311 311 309 311 317
190 189 187 186 185 185 187 188 190 193 196 197 198 199 200 201 203 203 204 206 208 210 211 214 218 221 223 223 224 224 223 223 223 223 225 230 232 234 236 240 244 250 255 259 260 260 262 264 267 271 275 278 281 284 285 287 287 285 283 282 281 281 283 284 285 289 294 299 303 307 310 312 314 314 314 314 314 315 314 312 311 309 305 304 306
191 187 184 185 187 190 192 194 196 197 197 197 198 201 203 204 204 204 205 207 208 210 212 216 220 222 222 223 224 225 227 227 227 229 232 236 238 241 244 246 250 253 256 259 261 261 264 267 270 273 276 279 282 284 286 285 284 281 279 276 276 276 278 280 284 288 293 297 301 305 308 310 311 313 314 314 315 316 314 312 311 309 304 300 299
193 189 187 188 192 196 198 197 195 195 195 197 200 204 205 205 205 206 207 208 210 212 214 217 219 220 221 222 224 225 228 230 232 234 238 241 244 246 248 249 251 254 255 257 260 262 265 268 271 273 277 279 281 283 283 281 278 276 275 273 272 273 275 279 282 287 291 295 298 302 306 308 309 312 313 312 313 314 314 314 314 312 306 300 297
191 189 189 191 193 196 198 197 196 198 200 201 203 204 204 204 205 206 207 209 211 213 215 218 219 218 219 221 224 226 229 232 234 238 242 246 248 248 248 250 253 255 257 259 261 264 266 269 271 274 276 278 280 280 279 277 275 275 275 275 274 274 275 278 282 286 290 293 295 298 302 305 306 308 310 311 311 312 313 315 316 314 309 303 297
190 188 188 189 190 193 196 199 200 201 201 199 199 201 203 203 205 208 210 212 214 215 218 220 219 218 220 223 227 230 233 235 238 241 245 248 249 250 251 254 257 259 261 262 264 266 268 270 273 275 276 277 278 278 277 275 273 273 274 275 275 274 275 278 281 284 287 290 292 295 297 300 302 304 306 306 306 306 308 311 313 313 311 307 301
190 189 188 189 190 193 196 199 200 199 198 196 196 198 202 205 208 210 213 215 216 218 221 222 220 219 221 225 230 235 237 239 243 248 250 252 254 255 256 258 259 260 262 263 264 267 270 272 274 275 274 273 275 276 276 275 273 271 272 272 272 271 272 274 276 280 283 287 290 292 293 295 298 301 303 304 303 303 306 308 311 311 309 306 303
191 191 191 192 192 192 195 198 198 198 198 198 198 200 203 207 209 211 213 216 218 220 222 222 221 222 223 228 234 241 245 248 252 256 258 260 262 263 262 260 259 259 260 261 262 265 268 270 272 272 272 271 273 274 275 274 272 270 269 268 268 269 271 273 275 279 282 284 286 287 289 291 293 297 301 302 301 301 304 307 310 311 309 307 304
192 191 191 191 190 188 190 194 196 196 197 200 202 204 207 208 208 210 214 217 220 221 221 221 223 225 228 234 242 250 254 257 259 260 261 263 265 266 265 264 263 262 262 261 261 262 264 267 268 269 270 271 272 273 274 274 273 270 267 266 267 269 271 273 276 279 281 283 285 286 287 289 291 293 296 297 297 298 300 302 305 305 302 301 301
192 190 190 189 188 188 190 194 197 198 201 203 204 204 206 207 207 210 215 220 222 223 224 225 226 229 233 240 248 253 257 260 260 260 260 261 263 265 264 263 262 263 262 262 261 261 264 266 268 271 272 273 274 275 276 276 275 273 270 267 267 268 270 273 277 280 281 283 284 285 286 287 289 291 294 296 296 297 298 300 301 301 299 297 297
193 193 193 192 191 192 197 200 201 201 204 205 203 202 203 204 206 210 216 221 224 226 228 230 231 234 239 246 251 254 258 262 265 265 263 261 260 261 261 261 260 260 260 260 262 264 266 269 271 272 273 274 275 276 275 274 273 271 269 267 267 270 274 276 277 278 280 282 285 287 288 290 291 292 293 295 294 294 296 298 298 297 296 295 294
193 192 193 194 194 196 200 202 202 202 204 205 204 203 203 204 206 212 217 220 224 230 234 235 237 239 244 248 250 253 257 263 271 276 275 270 264 261 260 260 259 258 257 259 261 264 267 270 272 272 271 271 271 270 269 269 268 267 266 267 268 271 273 275 276 278 282 287 291 292 292 292 293 293 293 293 292 292 293 294 294 293 293 292 291
Height
817 819 822 824 826 828 831 834 836 838 840 841 843 845 846 848 849 851 852 854 856 858 859 861 862 864 865 867 868 868 869 870 870 871 871 871 872 872 873 874 874 875 875 876 876 876 876 876 876 876 876 876 876 876 875 875 875 875 875 874 873 872 871 870 867 863 860 859 858 854 852 849 846 843 840 837 834 830 826 822 819 816 812 807 802
816 818 821 823 826 828 831 833 835 837 839 840 842 844 846 847 849 850 852 854 856 858 859 861 863 864 866 867 868 869 870 870 871 872 872 872 873 874 875 875 876 876 876 877 877 877 877 877 877 877 877 877 876 876 876 876 876 875 875 874 873 872 871 869 868 864 860 858 857 854 851 848 845 842 839 835 832 828 825 821 817 814 810 806 800
815 817 820 822 825 828 830 832 834 836 838 840 842 844 845 847 849 850 852 854 856 858 860 861 863 865 866 868 869 870 870 871 872 872 873 874 874 875 876 877 877 877 877 877 878 878 878 878 878 878 877 877 877 877 877 876 876 875 874 874 872 871 870 869 867 865 861 858 856 854 851 847 844 841 838 835 832 828 824 820 816 813 809 804 800
814 816 819 821 824 827 829 831 834 835 837 839 841 843 845 846 848 850 852 854 855 858 860 861 863 865 867 868 869 870 870 871 872 873 874 875 875 876 877 878 878 878 878 878 878 878 878 878 878 878 878 878 877 877 877 876 876 875 874 873 872 870 869 868 866 865 862 858 856 853 850 847 844 840 837 834 831 828 824 819 815 811 807 803 799
813 815 818 820 823 826 828 830 833 834 836 838 840 842 844 846 848 849 851 853 855 858 860 861 863 865 866 868 869 870 871 871 872 873 874 875 876 877 878 878 879 878 878 878 879 879 879 879 879 878 878 878 878 878 877 876 876 875 874 872 871 870 868 867 866 864 862 859 855 852 850 847 843 840 837 833 829 826 823 820 815 810 805 801 798
812 814 817 819 822 824 827 829 831 833 836 837 839 842 844 846 848 849 851 853 855 857 859 861 863 864 866 867 869 870 871 872 872 873 875 876 877 878 878 879 879 879 879 879 879 879 879 879 879 879 878 878 878 878 877 876 875 874 873 872 871 869 868 867 865 863 861 858 855 852 849 847 843 840 837 834 828 824 820 817 813 809 804 799 797
810 813 815 818 821 823 825 828 830 832 835 837 839 841 843 845 847 849 851 853 855 857 859 861 862 864 866 867 868 869 870 871 872 873 875 876 877 878 879 879 879 879 879 879 879 879 879 879 879 879 879 878 878 878 877 876 875 874 873 872 871 869 868 866 864 863 861 858 854 852 849 846 844 840 837 834 831 826 821 814 809 806 803 799 795
809 812 814 817 819 822 824 827 829 832 834 836 838 840 843 845 847 849 851 853 855 856 858 860 862 863 865 866 867 869 870 871 872 873 875 876 877 878 879 879 879 879 879 879 879 879 879 879 879 879 879 879 878 877 877 876 875 874 873 872 871 869 868 866 864 862 860 857 854 852 849 846 844 841 837 833 829 825 822 817 810 805 802 798 793
808 810 813 816 818 820 823 826 828 831 833 835 838 840 842 844 846 849 851 852 854 856 858 859 861 862 864 866 867 868 869 871 871 872 874 876 877 878 879 879 879 879 879 879 879 879 879 879 879 879 879 879 878 877 877 876 875 874 873 872 871 869 868 866 864 862 860 857 854 852 849 846 844 840 836 833 829 825 821 818 812 807 802 798 792
806 809 812 815 817 820 822 825 827 830 832 835 837 839 842 844 846 848 850 852 854 855 857 859 860 862 863 865 866 867 869 870 871 872 874 875 877 878 879 879 879 879 879 879 879 879 879 879 879 879 879 878 878 878 877 876 875 874 874 872 871 869 868 866 865 863 860 857 855 852 849 847 844 841 838 834 831 827 821 816 811 806 802 796 790
805 808 811 813 816 819 821 824 826 829 831 834 836 839 841 843 846 848 849 851 853 855 857 858 860 861 863 864 865 867 868 869 870 872 873 875 876 877 878 878 878 878 878 878 878 879 879 880 879 879 879 878 878 877 877 876 875 874 874 872 871 870 868 867 865 863 861 858 856 853 850 848 845 842 839 836 832 827 822 817 811 805 800 795 788
804 807 810 813 815 818 820 823 825 828 831 833 836 838 840 843 845 847 849 850 852 854 856 857 859 860 862 864 865 866 867 869 870 871 873 874 876 877 878 878 878 878 878 878 878 879 879 879 879 879 878 878 877 877 876 876 875 874 873 872 871 869 868 867 865 863 861 859 856 854 851 849 846 843 840 836 832 827 823 819 814 807 802 797 791
803 806 809 812 814 816 819 821 824 827 829 832 835 837 839 842 844 846 847 849 851 853 855 856 858 860 861 863 864 865 867 868 869 870 872 873 875 876 877 877 877 878 878 878 878 878 879 879 879 878 878 877 877 876 876 875 874 873 872 871 870 869 868 867 865 863 861 859 856 854 852 849 846 843 840 837 832 828 823 819 814 809 803 799 794
802 805 808 811 813 815 818 820 822 826 828 831 834 836 838 840 843 845 846 848 850 852 854 855 857 859 861 862 863 865 866 867 868 870 871 873 874 875 876 876 877 877 877 877 877 878 878 878 878 878 877 877 876 876 875 874 873 872 871 871 870 868 867 866 865 863 861 859 857 854 852 849 847 843 840 837 834 829 824 819 814 809 805 800 796
801 803 806 809 812 814 816 819 821 824 827 830 833 835 837 839 841 844 845 847 849 851 852 854 856 858 859 861 862 864 865 866 867 869 870 872 873 874 875 876 876 877 877 877 877 877 877 878 878 877 877 876 876 875 875 874 873 872 871 870 869 868 867 866 864 862 860 858 857 854 851 849 846 843 840 837 834 830 826 820 815 811 806 800 795
800 803 805 808 810 813 815 817 820 823 826 829 832 834 836 838 840 842 844 846 847 849 851 853 855 857 858 860 861 863 864 865 867 868 869 871 872 873 874 875 875 876 876 876 876 877 877 877 877 876 876 876 875 875 874 874 873 872 871 870 869 868 867 866 864 862 860 858 856 854 851 849 846 843 840 837 833 829 824 820 816 811 805 799 793
798 801 804 806 809 812 814 816 819 822 825 827 830 833 835 837 839 841 842 844 846 848 850 852 853 855 857 859 860 862 863 864 866 867 868 870 871 872 873 874 874 875 875 875 876 876 876 876 876 876 875 875 875 874 874 873 872 871 870 869 869 868 867 865 863 862 860 858 856 854 851 848 846 843 839 836 832 828 823 819 814 809 804 799 793
796 799 802 804 807 810 813 816 818 820 823 826 828 831 834 837 838 840 841 842 844 846 848 850 852 854 856 857 859 861 863 864 865 866 868 869 870 871 872 873 874 874 874 874 875 875 875 875 875 875 875 874 874 874 874 873 872 871 871 870 869 869 868 865 863 861 859 857 855 853 850 847 844 841 837 834 831 827 823 819 815 810 805 800 794
793 796 799 802 805 808 811 814 817 819 822 825 828 830 833 835 837 839 840 841 843 845 847 849 851 853 855 857 859 861 863 864 865 866 867 868 869 870 871 873 873 873 874 874 874 874 874 874 874 874 874 874 874 874 873 873 872 871 871 870 870 870 868 866 864 862 859 857 855 852 849 846 843 839 836 833 829 826 823 820 816 811 806 801 795
791 794 797 801 805 807 810 813 816 818 821 824 827 829 831 834 836 837 839 840 842 844 846 848 851 853 855 857 858 860 861 863 865 867 867 868 869 869 870 871 872 872 872 873 873 873 874 874 873 873 873 873 873 873 873 872 872 871 871 871 871 870 868 866 865 863 860 858 855 852 849 845 842 839 836 832 829 826 823 820 816 812 808 802 797
790 793 797 800 804 806 809 812 815 818 820 823 826 828 830 833 835 836 837 839 841 843 845 848 850 852 854 856 858 859 860 862 864 866 867 868 868 868 869 869 870 871 871 871 872 872 873 873 873 873 873 873 873 873 872 872 871 871 871 871 871 870 868 866 864 862 860 858 855 852 849 846 843 839 836 833 829 826 822 819 816 813 809 804 799
789 792 796 799 802 805 808 811 814 816 819 822 824 826 829 832 834 835 837 838 840 842 845 847 850 851 853 855 857 858 859 860 861 864 865 866 866 867 867 867 868 869 869 870 870 871 871 872 872 872 872 872 872 872 872 871 871 871 871 870 870 869 868 866 864 862 860 858 855 853 850 846 843 840 837 833 830 826 822 819 816 812 809 806 801
787 791 794 797 800 803 806 809 812 814 817 820 823 825 827 830 833 834 836 837 839 842 844 846 849 850 852 853 855 857 858 858 859 861 863 864 864 865 866 866 866 867 868 868 869 869 870 871 871 871 871 871 871 871 871 871 870 870 870 869 869 868 867 865 864 862 860 858 855 852 849 847 843 840 837 834 830 826 822 818 815 811 808 805 801
787 790 793 796 799 801 805 807 810 813 816 819 821 824 826 828 831 833 835 836 839 841 843 845 847 849 851 852 854 855 857 858 859 860 861 862 863 864 864 864 864 865 866 867 867 868 869 869 870 870 870 870 871 870 870 870 869 869 869 868 868 867 866 865 863 861 859 857 855 852 849 847 844 841 838 834 830 826 822 818 814 810 807 803 799
786 789 792 795 797 800 803 806 809 811 814 817 819 822 824 826 829 831 833 836 838 840 842 844 845 847 849 850 852 854 856 857 858 859 860 861 862 862 862 863 863 864 864 865 866 867 868 868 869 869 869 870 869 869 869 869 868 868 868 868 867 866 865 864 863 861 859 857 854 852 849 846 844 840 837 833 829 826 822 818 814 810 806 802 797
783 787 790 793 795 798 802 805 807 810 812 815 817 820 822 824 827 830 832 834 836 838 839 841 843 845 847 848 851 854 855 857 857 858 859 860 860 861 861 861 862 862 863 864 864 866 866 867 868 868 868 868 868 868 868 868 867 867 867 867 866 865 864 863 862 860 859 856 854 851 849 846 843 839 836 832 829 826 823 818 814 810 806 801 796
781 784 787 790 794 796 799 802 805 808 811 813 816 818 820 823 825 827 829 832 834 835 837 839 841 843 845 847 850 852 855 856 856 857 857 858 859 859 859 860 860 861 862 862 863 864 865 866 866 867 867 867 867 867 867 866 866 866 866 865 865 864 863 862 861 859 857 855 853 850 848 845 842 839 836 832 829 827 823 819 815 810 806 802 797
778 782 785 787 791 794 796 800 803 806 809 812 814 816 818 820 823 825 827 829 831 833 834 836 838 839 841 844 847 850 852 853 854 855 855 856 857 857 858 858 859 860 860 861 862 863 864 864 865 865 866 866 866 866 865 865 864 864 864 864 863 862 861 860 859 857 856 854 852 849 847 844 841 838 836 832 830 826 823 819 816 811 807 802 798
777 781 784 786 789 792 795 798 801 803 806 809 812 813 815 818 820 822 825 827 828 830 832 834 836 838 840 842 844 846 848 850 852 853 854 854 855 856 856 857 858 858 859 860 861 862 862 863 864 864 864 865 865 864 864 863 863 863 862 862 861 861 860 859 857 856 855 853 851 848 846 843 841 838 835 832 829 826 823 820 816 812 808 804 800
776 779 782 785 788 790 793 796 799 801 804 807 810 812 814 817 819 821 824 826 827 829 831 833 835 837 839 841 841 843 845 848 850 852 853 854 854 855 856 857 857 858 858 858 859 860 861 861 862 862 863 863 863 863 862 862 862 861 861 860 860 859 858 857 856 855 853 851 849 847 845 842 840 838 835 832 829 826 823 820 817 813 810 806 802
774 777 780 783 785 788 791 794 797 800 802 805 807 810 814 817 819 821 823 824 826 828 830 832 834 836 837 839 840 842 844 847 849 851 852 852 853 854 855 856 856 856 857 857 858 858 859 860 860 860 861 861 861 861 861 860 860 859 859 858 858 857 856 855 854 853 851 849 848 846 844 842 839 837 835 832 829 826 823 820 817 814 811 808 804
771 774 777 780 783 786 789 792 794 798 801 803 805 808 811 815 818 820 822 823 825 827 829 830 832 834 835 837 839 840 842 845 847 848 849 850 852 852 853 854 855 855 855 856 856 857 857 857 858 858 859 859 859 859 859 858 858 857 857 856 855 854 854 853 852 851 849 848 846 844 842 840 838 836 833 831 828 826 823 820 818 815 811 808 805
768 771 774 778 781 785 787 789 792 795 798 800 803 805 808 811 813 816 819 822 824 826 827 829 831 832 833 835 837 839 841 843 844 846 847 848 849 851 852 852 853 853 854 854 854 854 855 855 856 856 856 857 857 857 856 856 856 855 855 854 853 852 852 851 850 848 847 846 844 842 841 839 837 834 832 830 828 826 823 821 818 815 812 809 805
765 768 771 774 778 781 784 787 790 792 795 797 800 802 805 807 809 812 816 819 822 823 825 826 828 829 831 833 835 837 839 841 843 844 845 846 847 848 850 850 851 851 852 852 852 852 852 853 853 853 854 854 854 854 854 854 854 853 853 852 851 850 849 848 847 846 845 844 842 841 839 837 836 834 832 829 827 825 823 821 819 816 813 810 806
764 767 769 772 775 778 781 784 787 790 793 795 798 801 803 805 808 810 813 815 817 819 820 822 824 825 828 830 832 834 837 839 840 841 842 843 845 846 847 848 848 848 849 849 849 849 850 850 850 851 851 851 851 851 851 851 851 851 850 850 849 848 847 846 845 844 843 842 840 839 837 836 834 832 831 828 826 824 822 820 818 816 814 811 808
764 767 769 772 774 777 780 783 785 788 790 793 796 799 801 803 806 808 810 813 815 816 818 820 821 823 825 827 829 832 834 836 837 839 840 841 842 843 844 844 845 845 845 846 846 847 847 847 848 848 848 849 849 849 849 849 848 848 848 847 846 846 845 844 843 842 841 840 838 837 835 834 832 831 829 827 825 823 821 819 817 815 813 811 808
762 765 768 771 773 776 778 781 784 786 789 791 794 797 799 802 804 806 809 811 812 814 816 818 819 821 822 824 826 829 830 832 834 835 837 838 839 839 840 841 841 842 842 843 844 844 844 845 845 845 845 846 846 846 846 846 846 845 845 844 844 843 842 841 841 840 839 837 836 835 833 832 830 829 827 826 824 822 820 818 816 814 812 810 808
761 762 765 768 771 774 777 779 782 785 787 790 793 795 797 800 802 804 806 808 810 812 814 815 816 818 819 821 824 826 828 829 830 831 832 834 835 836 836 837 838 838 839 840 840 841 841 842 842 842 842 843 843 843 843 843 843 842 842 841 841 840 839 839 838 837 836 835 834 832 831 830 828 827 825 824 822 820 818 816 815 813 812 810 808
760 762 764 766 769 772 775 777 780 783 785 788 790 792 794 797 799 801 803 805 806 808 810 812 814 815 817 819 821 823 824 825 826 827 828 830 831 832 833 833 834 835 836 837 837 838 838 839 839 839 839 840 840 840 840 840 840 839 839 838 838 837 837 836 835 834 833 832 831 830 829 827 826 825 823 821 820 818 816 814 813 812 811 809 807
759 761 764 767 769 772 774 776 778 780 782 785 787 789 791 793 796 798 800 802 804 806 808 810 811 812 814 817 818 820 821 822 823 824 825 827 828 829 829 830 831 831 832 833 834 834 835 835 836 836 836 836 837 837 837 836 836 836 835 835 835 834 834 833 833 832 831 830 829 828 826 825 824 822 821 819 818 816 814 813 811 810 809 807 805
758 761 764 767 770 772 774 776 777 778 780 782 784 787 789 791 793 795 797 799 801 804 806 807 808 810 812 814 815 817 818 819 820 822 823 824 825 826 826 827 827 828 829 830 831 831 832 832 833 833 833 833 833 833 833 833 833 832 832 832 831 831 831 830 830 829 828 827 826 825 824 823 821 820 818 817 815 814 812 811 809 808 806 805 804
755 758 761 764 768 770 772 774 775 777 779 781 783 784 786 788 791 793 795 797 799 801 803 804 806 808 810 812 813 814 815 817 818 819 820 821 822 822 823 823 824 825 826 827 827 828 829 829 829 830 830 830 830 830 830 829 829 829 829 829 828 828 828 827 827 826 825 824 823 822 821 820 819 817 816 814 813 812 810 808 807 806 805 803 802
753 755 758 761 764 766 768 770 772 775 777 779 780 782 784 786 788 790 792 794 796 798 800 802 803 806 808 810 811 812 813 814 815 816 817 818 818 819 819 820 821 821 822 823 824 825 825 825 826 826 826 826 826 826 826 826 826 826 826 825 825 825 824 824 824 823 822 821 820 819 818 817 816 815 813 812 810 809 808 806 805 804 803 802 800
752 754 756 759 761 764 766 769 771 772 774 776 778 780 782 785 787 788 790 792 794 795 797 799 801 803 806 807 808 809 810 811 812 813 814 814 815 815 815 816 817 818 819 820 821 821 822 822 822 823 823 823 823 823 823 823 823 822 822 822 822 821 821 820 820 819 819 818 817 816 815 814 813 812 811 809 808 806 805 804 803 802 801 800 799
751 753 755 757 759 762 765 767 769 770 772 775 777 779 781 783 784 786 788 790 792 794 795 797 799 801 803 804 805 806 807 808 809 810 810 810 811 811 812 813 814 815 816 817 817 818 818 818 819 819 819 819 819 819 819 819 819 819 818 818 818 817 817 817 817 816 815 814 813 813 812 811 810 809 808 807 806 804 803 802 801 800 798 797 796
749 751 753 755 757 760 762 765 767 769 771 774 775 777 779 780 782 784 786 787 789 792 793 795 797 799 800 801 802 803 804 805 806 806 807 807 807 808 809 810 811 811 812 813 814 814 814 815 815 815 815 816 816 816 816 815 815 815 815 814 814 814 813 813 813 812 812 811 810 809 808 808 807 806 805 804 803 802 800 799 798 797 796 795 793
747 749 752 754 756 758 760 762 765 767 769 771 773 775 776 778 779 781 783 785 787 789 791 793 795 796 798 799 800 800 801 802 803 803 803 804 804 805 806 806 807 808 809 809 810 810 811 811 811 812 812 812 812 812 812 812 811 811 811 810 810 810 810 810 809 809 808 807 806 806 805 804 803 803 802 801 800 799 797 796 795 794 793 792 791
746 748 750 753 755 757 759 760 763 765 767 769 771 773 774 776 778 780 782 783 785 787 788 790 792 794 795 796 797 797 798 799 799 800 800 800 801 802 802 803 804 805 805 806 806 807 807 807 808 808 808 808 808 808 808 808 808 807 807 806 806 806 806 806 805 804 804 803 802 802 801 800 800 799 798 797 797 796 795 794 792 791 790 789 788
745 747 749 751 753 755 757 758 761 763 765 766 768 770 772 774 776 778 780 782 784 785 786 788 790 792 793 794 794 795 795 796 796 796 797 797 798 799 799 800 801 801 802 802 803 803 803 804 804 804 804 805 804 804 804 804 804 803 803 803 802 802 802 802 801 800 800 799 798 798 797 796 796 795 795 794 793 792 791 790 789 788 787 786 785
743 745 747 750 752 753 755 756 758 760 762 764 766 768 770 772 774 777 779 780 782 783 784 786 787 789 790 791 791 792 792 793 793 793 794 794 795 795 796 797 797 798 798 799 799 800 800 800 800 800 801 801 800 800 800 800 800 799 799 799 799 798 798 797 797 796 796 795 795 794 794 793 792 792 791 790 790 789 788 787 786 785 784 783 782
742 744 746 748 750 752 753 755 757 759 761 763 765 766 768 770 772 774 776 778 779 781 782 783 785 787 787 788 788 789 789 790 790 790 791 791 791 792 793 793 794 794 795 795 795 796 796 796 796 797 797 796 796 796 796 796 796 795 795 795 795 794 794 793 793 792 792 792 791 791 790 790 789 788 787 787 786 785 784 783 783 782 781 780 779